Location: Newark
(25.0000°N, 73.5000°E)
Time: 04:21:35
(UTC+00:00)

ISS - Pass Details

Date: 27 June 2021
Orbit: 419 x 421 km, 51.6° (Epoch: 03 August)

Event Time Altitude Azimuth Distance (km) Brightness Sun altitude
Exits shadow 22:22:12 17° 334° (NNW) 1,125 -1.5 -22.8°
Drops below altitude 10° 22:23:56 10° 4° (N) 1,495 -0.4 -22.5°
Sets 22:26:29 0° 24° (NNE) 2,360 1.2 -22.1°
